Weather History for Ord, NE

Change the Weather History Date:

Thursday, November 22, 2012

  Actual Average Record
Temperature  
Mean Temperature 41 °F 33 °F  
Max Temperature 55 °F 45 °F 68 °F (1998)
Min Temperature 26 °F 21 °F 1 °F (2013)
Degree Days  
Heating Degree Days 24 32  
Month to date heating degree days 558 587  
Since 1 July heating degree days 1249 1207  
Cooling Degree Days 0 0  
Month to date cooling degree days 0 0  
Year to date cooling degree days 1220 845  
Moisture  
Dew Point 25 °F    
Average Humidity 52    
Maximum Humidity 75    
Minimum Humidity 28    
Precipitation  
Precipitation 0.00 in 0.03 in 0.83 in (1979)
Month to date precipitation 0.05 0.84  
Year to date precipitation 11.42 24.12  
Sea Level Pressure  
Sea Level Pressure 30.04 in    
Wind  
Wind Speed 15 mph (NW)    
Max Wind Speed 37 mph    
Max Gust Speed 45 mph    
Visibility 10 miles    
Events      
T = Trace of Precipitation, MM = Missing Value Source: NWS Daily Summary

Daily Weather History Graph

Daily Weather History Graph

Search for Another Location

Airport:

Trip Planner

Search our weather history database for the weather conditions in past years. The results will help you decide how hot, cold, wet, or windy it might be!

Date:

Astronomy

Nov. 22, 2012 Rise Set
Actual Time 7:33 AM CST 5:10 PM CST
Civil Twilight 7:03 AM CST 5:40 PM CST
Nautical Twilight 6:29 AM CST 6:14 PM CST
Astronomical Twilight 5:56 AM CST 6:47 PM CST
Moon 2:00 PM CST (11/22) 1:51 AM CST (11/22)
Length of Visible Light 10h 37m
Length of Day
9h 36m
Waxing Gibbous, 71% of the Moon is Illuminated
Nov 22
Waxing Gibbous
Nov 28
Full
Dec 6
Last Quarter
Dec 13
New
Dec 19
First Quarter

Hourly Weather History & Observations

Time (CST) Temp. Windchill Dew Point Humidity Pressure Visibility Wind Dir Wind Speed Gust Speed Precip Events Conditions
12:53 AM 32.0 °F - 23.0 °F 69% 29.75 in 10.0 mi Calm Calm - N/A   Clear
1:53 AM 28.0 °F - 19.9 °F 72% 29.75 in 10.0 mi Calm Calm - N/A   Clear
2:53 AM 28.0 °F - 21.0 °F 75% 29.76 in 10.0 mi Calm Calm - N/A   Clear
3:53 AM 30.0 °F 26.5 °F 23.0 °F 75% 29.75 in 10.0 mi NNW 3.5 mph - N/A   Clear
4:53 AM 30.0 °F 24.1 °F 23.0 °F 75% 29.78 in 10.0 mi WNW 5.8 mph - N/A   Clear
5:53 AM 34.0 °F 27.2 °F 24.1 °F 67% 29.81 in 10.0 mi NW 8.1 mph - N/A   Clear
6:53 AM 39.9 °F 33.4 °F 26.1 °F 58% 29.83 in 10.0 mi NW 10.4 mph - N/A   Clear
7:53 AM 39.9 °F 32.5 °F 28.0 °F 63% 29.88 in 10.0 mi NNW 12.7 mph - N/A   Clear
8:53 AM 46.9 °F - 33.1 °F 59% 29.92 in 10.0 mi NNW 16.1 mph - N/A   Clear
9:53 AM 54.0 °F - 37.0 °F 53% 29.97 in 10.0 mi NW 26.5 mph 34.5 mph N/A   Clear
10:53 AM 52.0 °F - 35.1 °F 53% 30.01 in 10.0 mi NW 31.1 mph 41.4 mph N/A   Clear
11:53 AM 54.0 °F - 34.0 °F 47% 30.03 in 10.0 mi NW 32.2 mph 39.1 mph N/A   Clear
12:53 PM 52.0 °F - 33.1 °F 49% 30.05 in 10.0 mi NW 25.3 mph 39.1 mph N/A   Scattered Clouds
1:53 PM 54.0 °F - 28.9 °F 38% 30.07 in 10.0 mi NNW 26.5 mph 34.5 mph N/A   Clear
2:53 PM 54.0 °F - 21.9 °F 29% 30.10 in 10.0 mi NNW 28.8 mph 38.0 mph N/A   Clear
3:53 PM 52.0 °F - 24.1 °F 34% 30.14 in 10.0 mi NNW 25.3 mph 31.1 mph N/A   Clear
4:53 PM 48.0 °F - 21.9 °F 36% 30.19 in 10.0 mi NW 12.7 mph 20.7 mph N/A   Clear
5:53 PM 44.1 °F 38.6 °F 19.9 °F 38% 30.22 in 10.0 mi WNW 10.4 mph - N/A   Clear
6:53 PM 44.1 °F 37.4 °F 21.9 °F 42% 30.25 in 10.0 mi NW 13.8 mph - N/A   Clear
7:53 PM 41.0 °F 34.3 °F 19.9 °F 43% 30.29 in 10.0 mi NW 11.5 mph - N/A   Clear
8:53 PM 35.1 °F 31.0 °F 19.0 °F 52% 30.32 in 10.0 mi WNW 4.6 mph - N/A   Clear
9:53 PM 32.0 °F 25.6 °F 19.9 °F 61% 30.33 in 10.0 mi NNW 6.9 mph - N/A   Clear
10:53 PM 36.0 °F 24.2 °F 21.0 °F 55% 30.37 in 10.0 mi NW 24.2 mph 32.2 mph N/A   Clear
11:53 PM 28.9 °F 13.7 °F 12.9 °F 51% 30.42 in 10.0 mi NW 28.8 mph 36.8 mph N/A   Clear